SAUDICOMSAT 2

Last updated on Thu Aug 20 2026 00:03:14 GMT+0000 (Coordinated Universal Time)

1 28370U 04025E 26231.26558141 .00000241 00000+0 73481-4 0 9990 2 28370 98.6653 245.2969 0056755 69.1161 291.6095 14.50011457169240
UTC large
Height (km)
Speed (km/s)
/
Latitude / Longitude
Inclination (degrees)
Orbital Period (minutes)
Azimuth
Elevation
Range (km)
Doppler Factor

Next 0 passes for location: London (51.5072 / 0.1276)

No passes found over London.
SAUDICOMSAT 2